Brownwood, TX

2:57 PM CDT on September 24, 2017 (GMT -0500)
Brownwood Regional

Weather History for KBWD - October, 2013

Change the Weather History Date:

Friday, October 25, 2013

  Actual Average (KABI) Record (KABI)
Temperature  
Mean Temperature 62 °F -  
Max Temperature 75 °F 71 °F 91 °F (1950)
Min Temperature 50 °F 50 °F 34 °F (1887)
Degree Days  
Heating Degree Days 2    
Growing Degree Days 12 (Base 50)    
Moisture  
Dew Point 51 °F    
Average Humidity 69    
Maximum Humidity 94    
Minimum Humidity 41    
Precipitation  
Precipitation 0.00 in - - ()
Sea Level Pressure  
Sea Level Pressure 30.28 in    
Wind  
Wind Speed 5 mph (East)    
Max Wind Speed 14 mph    
Max Gust Speed 20 mph    
Visibility 10 miles    
Events      
Averages and records for this station are not official NWS values.
T = Trace of Precipitation, MM = Missing Value Source: NWS Daily Summary

Daily Weather History Graph

Daily Weather History Graph

Search for Another Location

Airport or City:

Trip Planner

Search our weather history database for the weather conditions in past years. The results will help you decide how hot, cold, wet, or windy it might be!

Date:

Astronomy

Oct. 25, 2013 Rise Set
Actual Time 7:46 AM CDT 6:52 PM CDT
Civil Twilight 7:21 AM CDT 7:17 PM CDT
Nautical Twilight 6:53 AM CDT 7:45 PM CDT
Astronomical Twilight 6:24 AM CDT 8:14 PM CDT
Moon No Moon Rise 1:22 PM CDT (10/25)
Length of Visible Light 11h 55m
Length of Day
11h 05m
Waning Gibbous, 62% of the Moon is Illuminated
Oct 25
Waning Gibbous
Oct 26
Last Quarter
Nov 3
New
Nov 9
First Quarter
Nov 17
Full

Hourly Weather History & Observations

Time (CDT) Temp. Dew Point Humidity Pressure Visibility Wind Dir Wind Speed Gust Speed Precip Events Conditions
12:15 AM 51.8 °F 48.2 °F 88% 30.25 in - Calm Calm - N/A   Unknown
12:35 AM 50.0 °F 48.2 °F 94% 30.25 in - Calm Calm - N/A   Unknown
12:55 AM 50.0 °F 48.2 °F 94% 30.26 in - Calm Calm - N/A   Unknown
1:15 AM 50.0 °F 48.2 °F 94% 30.26 in - Calm Calm - N/A   Unknown
1:35 AM 50.0 °F 48.2 °F 94% 30.26 in - NNW 3.5 mph - N/A   Unknown
1:55 AM 53.6 °F 46.4 °F 77% 30.26 in - Calm Calm - N/A   Unknown
2:15 AM 50.0 °F 46.4 °F 87% 30.26 in - NE 3.5 mph - N/A   Unknown
2:35 AM 55.4 °F 46.4 °F 72% 30.27 in - NE 6.9 mph - N/A   Unknown
2:55 AM 55.4 °F 46.4 °F 72% 30.27 in - NE 4.6 mph - N/A   Unknown
3:15 AM 53.6 °F 48.2 °F 82% 30.28 in - ENE 3.5 mph - N/A   Unknown
3:35 AM 53.6 °F 48.2 °F 82% 30.27 in - ENE 4.6 mph - N/A   Unknown
3:55 AM 51.8 °F 48.2 °F 88% 30.28 in - ENE 4.6 mph - N/A   Unknown
4:15 AM 53.6 °F 48.2 °F 82% 30.27 in - ENE 4.6 mph - N/A   Unknown
4:35 AM 53.6 °F 48.2 °F 82% 30.27 in - ENE 3.5 mph - N/A   Unknown
4:55 AM 55.4 °F 48.2 °F 77% 30.28 in - ENE 4.6 mph - N/A   Unknown
5:15 AM 55.4 °F 48.2 °F 77% 30.29 in - ENE 3.5 mph - N/A   Unknown
5:35 AM 55.4 °F 48.2 °F 77% 30.30 in - ENE 3.5 mph - N/A   Unknown
5:55 AM 53.6 °F 48.2 °F 82% 30.30 in - ENE 3.5 mph - N/A   Unknown
6:15 AM 53.6 °F 48.2 °F 82% 30.31 in - ENE 4.6 mph - N/A   Unknown
6:35 AM 53.6 °F 48.2 °F 82% 30.31 in - ENE 5.8 mph - N/A   Unknown
6:55 AM 53.6 °F 46.4 °F 77% 30.32 in - ENE 4.6 mph - N/A   Unknown
7:15 AM 51.8 °F 46.4 °F 82% 30.32 in - NE 4.6 mph - N/A   Unknown
7:35 AM 51.8 °F 46.4 °F 82% 30.33 in - NE 3.5 mph - N/A   Unknown
7:55 AM 50.0 °F 46.4 °F 87% 30.33 in - NE 3.5 mph - N/A   Unknown
8:15 AM 50.0 °F 46.4 °F 87% 30.33 in - Calm Calm - N/A   Unknown
8:35 AM 51.8 °F 46.4 °F 82% 30.34 in - ENE 3.5 mph - N/A   Unknown
8:55 AM 53.6 °F 46.4 °F 77% 30.34 in - East 8.1 mph - N/A   Unknown
9:15 AM 55.4 °F 48.2 °F 77% 30.35 in - East 4.6 mph - N/A   Unknown
9:35 AM 57.2 °F 48.2 °F 72% 30.36 in - East 8.1 mph - N/A   Unknown
9:55 AM 57.2 °F 48.2 °F 72% 30.36 in - East 8.1 mph - N/A   Unknown
10:15 AM 59.0 °F 50.0 °F 72% 30.36 in - East 6.9 mph - N/A   Unknown
10:35 AM 60.8 °F 50.0 °F 68% 30.36 in - East 5.8 mph - N/A   Unknown
10:55 AM 62.6 °F 50.0 °F 63% 30.36 in - ENE 5.8 mph - N/A   Unknown
11:15 AM 64.4 °F 51.8 °F 64% 30.35 in - ESE 6.9 mph - N/A   Unknown
11:35 AM 64.4 °F 51.8 °F 64% 30.35 in - East 5.8 mph - N/A   Unknown
11:55 AM 66.2 °F 51.8 °F 60% 30.35 in - ESE 5.8 mph - N/A   Unknown
12:15 PM 66.2 °F 53.6 °F 64% 30.34 in - SE 6.9 mph - N/A   Unknown
12:35 PM 68.0 °F 53.6 °F 60% 30.33 in - East 4.6 mph - N/A   Unknown
12:55 PM 68.0 °F 53.6 °F 60% 30.33 in - East 6.9 mph - N/A   Clear
1:15 PM 71.6 °F 51.8 °F 50% 30.31 in - SE 3.5 mph - N/A   Unknown
1:35 PM 71.6 °F 53.6 °F 53% 30.30 in - SE 9.2 mph 17.3 mph N/A   Unknown
1:55 PM 73.4 °F 53.6 °F 50% 30.28 in - SE 10.4 mph - N/A   Unknown
2:15 PM 73.4 °F 51.8 °F 47% 30.27 in - SE 11.5 mph - N/A   Unknown
2:35 PM 73.4 °F 50.0 °F 44% 30.26 in 10.0 mi SE 13.8 mph 18.4 mph N/A   Clear
2:55 PM 73.4 °F 50.0 °F 44% 30.25 in 10.0 mi SE 8.1 mph 18.4 mph N/A   Clear
3:15 PM 73.4 °F 50.0 °F 44% 30.24 in 10.0 mi SSE 10.4 mph 19.6 mph N/A   Clear
3:35 PM 75.2 °F 50.0 °F 41% 30.24 in 10.0 mi SE 11.5 mph - N/A   Unknown
3:55 PM 75.2 °F 50.0 °F 41% 30.24 in 10.0 mi SSE 12.7 mph - N/A   Clear
4:15 PM 73.4 °F 50.0 °F 44% 30.24 in 10.0 mi SSE 12.7 mph - N/A   Unknown
4:35 PM 73.4 °F 51.8 °F 47% 30.24 in 10.0 mi SSE 10.4 mph 16.1 mph N/A   Unknown
4:55 PM 73.4 °F 51.8 °F 47% 30.24 in 10.0 mi SE 11.5 mph - N/A   Unknown
5:15 PM 73.4 °F 51.8 °F 47% 30.24 in 10.0 mi SSE 11.5 mph - N/A   Unknown
5:35 PM 73.4 °F 53.6 °F 50% 30.23 in 10.0 mi SE 10.4 mph - N/A   Unknown
5:55 PM 73.4 °F 53.6 °F 50% 30.23 in 10.0 mi SE 8.1 mph - N/A   Unknown
6:15 PM 71.6 °F 53.6 °F 53% 30.22 in 8.0 mi SE 9.2 mph - N/A   Unknown
6:35 PM 71.6 °F 53.6 °F 53% 30.22 in 10.0 mi SE 8.1 mph - N/A   Clear
6:55 PM 68.0 °F 55.4 °F 64% 30.22 in 7.0 mi ESE 6.9 mph - N/A   Clear
7:15 PM 68.0 °F 55.4 °F 64% 30.22 in 10.0 mi ESE 6.9 mph - N/A   Clear
7:35 PM 66.2 °F 55.4 °F 68% 30.22 in 10.0 mi ESE 6.9 mph - N/A   Mostly Cloudy
7:55 PM 66.2 °F 55.4 °F 68% 30.23 in 10.0 mi East 6.9 mph - N/A   Scattered Clouds
8:15 PM 64.4 °F 55.4 °F 73% 30.23 in 10.0 mi ESE 8.1 mph - N/A   Scattered Clouds
8:35 PM 64.4 °F 55.4 °F 73% 30.22 in 10.0 mi ESE 10.4 mph - N/A   Partly Cloudy
8:55 PM 64.4 °F 55.4 °F 73% 30.22 in 10.0 mi ESE 10.4 mph - N/A   Clear
9:15 PM 64.4 °F 55.4 °F 73% 30.22 in 10.0 mi ESE 10.4 mph - N/A   Clear
9:35 PM 64.4 °F 55.4 °F 73% 30.22 in 10.0 mi ESE 11.5 mph - N/A   Clear
9:55 PM 64.4 °F 55.4 °F 73% 30.22 in 10.0 mi ESE 10.4 mph - N/A   Clear
10:15 PM 62.6 °F 55.4 °F 77% 30.22 in 10.0 mi ESE 11.5 mph - N/A   Clear
10:35 PM 64.4 °F 55.4 °F 73% 30.21 in 10.0 mi SE 11.5 mph - N/A   Clear
10:55 PM 64.4 °F 55.4 °F 73% 30.22 in 10.0 mi SE 9.2 mph 16.1 mph N/A   Clear
11:15 PM 64.4 °F 55.4 °F 73% 30.22 in 10.0 mi SE 10.4 mph - N/A   Clear
11:35 PM 62.6 °F 55.4 °F 77% 30.23 in 10.0 mi SE 8.1 mph - N/A   Clear
11:55 PM 62.6 °F 55.4 °F 77% 30.22 in 10.0 mi SE 8.1 mph - N/A   Clear